STARLINK-33548, 62280

Orbit data source: Space-Track

STARLINK-33548, 62280 is a payload satellite owned by SpaceX/Seattle (US) in LEO that was launched on Sun, 08 Dec 2024 UTC via an FALCON 9 launch vehicle from the Air Force Eastern Test Range (AFETR). Payload-class satellites include a variety of spacecraft equipped with specific instruments for various scientific and technological missions. These include communications satellites like Starlink; space stations such as the ISS; scientific satellites like the Hubble; Earth observation satellites from companies like Planet Labs, Umbra, and HawkEye 360; GPS; miniature CubeSats for education and research; and military/defense satellites.

Loading next visibility...
Identifier
62280, 2024-237P
Orbit
LEO
Country
Flag of USUS
Related business
Manufacturer
SpaceX/Seattle
Mission
Operational Commercial Communications
Bus & Motor
STARLINK V2MO, Unknown motor
Mass
530 kg wet, ~500 kg dry
Launch date (UTC)
2024-12-08 (10 months ago)
Launch vehicle
FALCON 9
Launch site
Air Force Eastern Test Range (AFETR)
Object type
Payload
Rocket body
Debris
Shape & HBR
Box + 2 Pan, 17.7 m
Radar Cross Section
36.964 m², Large (>1 m²)

Expand to show TLE details & history
Last TLE update: 2 days ago

TLE from 2 days ago
0 STARLINK-33548
1 62280U 24237P   25285.49913975  .00033966  00000-0  12371-2 0  9998
2 62280  43.0032 322.4044 0001381 259.5303 100.5394 15.27608354 48657
Epoch: 2025-10-12T11:58Z
TLE epoch observation values (Epoch: 2025-10-12T11:58:45.674Z)
Latitude
0.00005°
Longitude
121.39874°
Altitude
482.913 km
Speed
7.626 km/s
True Right ascension
21h 29m 37s
True Declination
0° 00' 00"
Sunlit
Object was in full shadow at epoch
Visualization orbit readout
Latitude
Unknown
Longitude
Unknown
Altitude
Unknown
Speed
Unknown
Apparent Right ascension
Unknown
Apparent Declination
Unknown
Sunlit
N/A
Visualization observer readout
Local Sidereal Time
18:38:24
Azimuth
Unknown
Elevation
Unknown
Doppler factor
Unknown
Orbital elements
Apogee altitude
485.857 km
Perigee altitude
483.961 km
Semi-major axis
6,863.046 km
Eccentricity
0.00014
Inclination
43.0032°
RAAN
322.4044°
Arg. of periapsis
259.5303°
True anomaly
100.55496°
Mean anomaly
100.5394°
Eccentric anomaly
100.54718°
Mean motion
3.8174 °/min
Orbital period
94.3 mins
BSTAR
0.0012371
Loading maneuver chart data...
Computing Atmospheric mass density...
Loading historical data...
Loading historical data...
Loading historical data...
Loading historical data...
Loading historical data...
Loading historical data...
Loading historical data...

Documentation

Showing up to 5 results
|